Regional Weather Roundup
Issued by NWS Cleveland, OH

Home | Current Version | Previous Version | Text Only | Print | Product List | Glossary On
Versions: 1 2 3 4 5 6 7 8 9 10 11 12 13 14 15 16 17 18 19 20 21 22 23 24 25 26 27 28 29 30 31 32 33 34 35 36 37 38 39 40 41 42 43 44 45 46 47 48 49 50
000
ASUS41 KCLE 201912
RWRCLE
OHIO REGIONAL WEATHER ROUNDUP
NATIONAL WEATHER SERVICE WILMINGTON, OH
200 PM EST MON NOV 20 2017

NOTE: "FAIR" INDICATES FEW OR NO CLOUDS BELOW 12,000 FEET WITH NO
SIGNIFICANT WEATHER AND/OR OBSTRUCTIONS TO VISIBILITY.

OHZ001>008-015>018-024>027-034-035-043-044-202000-
   NORTHWEST OHIO

CITY           SKY/WX    TMP DP  RH WIND       PRES   REMARKS
DEFIANCE       FAIR      46  28  49 SW16G28   29.97F
FINDLAY        FAIR      45  28  51 S23       30.00F
TOLEDO EXPRESS FAIR      47  28  47 SW20G31   29.96F
TOLEDO EXEC    FAIR      46  28  49 S21G32    29.98F
LIMA           NOT AVBL
$$

OHZ009>014-019>023-028>033-038-089-202000-
   NORTHEAST OHIO

CITY           SKY/WX    TMP DP  RH WIND       PRES   REMARKS
CLE-HOPKINS    FAIR      46  25  43 SW18G26   30.03F
CLE-LAKEFRONT  FAIR      47  24  40 S20G26    30.00F
CUY CO. ARPT   MOSUNNY   46  27  46 SW17G23   30.01F
LORAIN-ELYRIA  FAIR      45  22  40 SW18      30.02F
ASHTABULA      FAIR      42  27  55 S17       30.01F
AKRON-CANTON   FAIR      42  25  50 S16       30.05F
WOOSTER        FAIR      43  24  47 SW17G24   30.04F
MANSFIELD      FAIR      43  25  49 S17G26    30.03F
YOUNGSTOWN     PTSUNNY   41  25  53 SW10G21   30.03F
$$

OHZ042-051>053-060>062-070>072-077>081-202000-
  SOUTHWEST OHIO

CITY           SKY/WX    TMP DP  RH WIND       PRES   REMARKS
CINC-COVINGTON PTSUNNY   46  25  43 S17G25    30.11F
CINC-LUNKEN    FAIR      48  27  44 S15       30.14F
HAMILTON       FAIR      48  25  40 S10G23    30.12F
DAYTON         FAIR      44  26  49 S18G25    30.07F
WRIGHT-PAT AFB MOSUNNY   45  23  42 SW5       30.09F
DAYTON GENERAL FAIR      45  26  47 S14       30.09F
WILMINGTON     FAIR      44  29  55 S16       30.10F
$$

OHZ036-037-039>041-045>050-054>059-063>069-073>076-082>088-202000-
  CENTRAL AND SOUTHEAST OHIO

CITY           SKY/WX    TMP DP  RH WIND       PRES   REMARKS
COLUMBUS       FAIR      44  27  51 S14       30.11F
OSU AIRPORT    FAIR      43  28  55 S14       30.09F
BOLTON FIELD   SUNNY     43  27  52 SW15      30.11F
RICKENBACK AFB FAIR      43  26  50 S14G21    30.11F
NEWARK         FAIR      44  24  45 S10       30.10F
MARION         FAIR      43  27  53 S16G26    30.05F
LANCASTER      FAIR      43  26  51 S16       30.13F
ZANESVILLE     FAIR      43  21  41 SW10      30.12F
NEW PHILLY     FAIR      44  24  45 SW6       30.10F
$$




USA.gov is the U.S. government's official web portal to all federal, state and local government web resources and services.